OBJECT XK, 65731

Orbit data source: Space-Track

You're viewing an Uncataloged Satellite

Recently launched and/or uncataloged satellites may have evolving metadata. Metadata may include but not limited to: Owner, Maufacturer, Bus, Motor, and Mission.

OBJECT XK, 65731 is a Japanese satellite in LEO that was delivered to and deployed from the ISS. Unknown objects in Earth's orbit typically refer to objects detected orbiting the Earth but have not yet been identified or cataloged. These objects could be anything from previously untracked satellites, spent rocket stages, debris from satellite collisions, or even natural meteoroids temporarily captured by Earth's gravity.

Loading next visibility...
Identifier
65731, 1998-067XK
Orbit
LEO
Country
Flag of JPJP / JPN
Related business
None
Manufacturer
Unknown
Mission
Operational spacecraft
Bus & Motor
Unknown
Mass
Unknown
Launch date (UTC)
1998-11-20 (27 years ago)
Launch vehicle
FALCON 9
Launch site
Tyuratam Missile And Space Complex (TTMTR)
Object type
Unknown
Shape & HBR
Unknown shape, 1.1 m
Radar Cross Section
RCS unknown

Expand to show TLE details & history
Last TLE update: 21 hours ago

TLE from 21 hours ago
0 OBJECT XK
1 65731U 98067XK  25298.52335059  .00077867  00000-0  10692-2 0  9995
2 65731  51.6330  20.0709 0004123  13.5816 346.5286 15.56618637  5618
Epoch: 2025-10-25T12:33Z
TLE epoch observation values (Epoch: 2025-10-25T12:33:37.490Z)
Latitude
-0.00004°
Longitude
157.51199°
Altitude
395.478 km
Speed
7.676 km/s
True Right ascension
01h 20m 17s
True Declination
0° 00' 00"
Sunlit
Object was in full shadow at epoch
Visualization orbit readout
Latitude
Unknown
Longitude
Unknown
Altitude
Unknown
Speed
Unknown
Apparent Right ascension
Unknown
Apparent Declination
Unknown
Sunlit
N/A
Visualization observer readout
Local Sidereal Time
05:05:25
Azimuth
Unknown
Elevation
Unknown
Doppler factor
Unknown
Orbital elements
Apogee altitude
400.756 km
Perigee altitude
395.168 km
Semi-major axis
6,776.099 km
Eccentricity
0.00041
Inclination
51.633°
RAAN
20.0709°
Arg. of periapsis
13.5816°
True anomaly
346.51759°
Mean anomaly
346.5286°
Eccentric anomaly
346.52309°
Mean motion
3.89111 °/min
Orbital period
92.52 mins
BSTAR
0.0010692
Loading maneuver chart data...
Computing Atmospheric mass density...

Documentation

Showing up to 5 results
|